Starlink 32356

operational
NORAD ID: 60921 Int'l Des: 2024-154 Owner: SPXS Country: US Constellation: starlink
LEOCIRCULAR

关于 Starlink 32356

正在加载描述...

实时位置

正在加载3D地球...

即将过境

高度历史

Altitude vs Time

uPlot chart will show altitude changes over time

两行轨道根数

1 60921U 24154U 25304.87113823 -.00000017 00000-0 11562-4 0 9999
2 60921 53.1592 162.0889 0001191 90.9577 269.1560 15.30185791 66627
Epoch: Oct 31, 2025 • Age: 19 hours

当前状态

高度 475.8 km
速度 7.63 km/s
星下点 3.30°N, 116.31°W
发射日期 Aug 31, 2024
运行时间 1.1 years
类型 internet

技术详情

分类 Payload
质量 730.00 kg
干质量 700.00 kg
总质量 730.00 kg
长度 0.30 m
直径 4.10 m
跨度 29.00 m
形状 Box + pan
制造商 SPXS
平台类型 Starlink V2M
阶段状态 In Orbit
所有者/国家 SPXS/US

大型星座

Loading constellations...